[[{"header":{"parameterUnit":"m.s-1","parameterCategory":1,"la1":30.2991,"la2":30.254,"lo1":-89.0895,"lo2":-89.0444,"dy":0.0017,"dx":0.0017,"nx":28,"ny":28,"refTime":"2024-08-14T21:00:00:Z","depth":0,"parameterNumber":2,"parameterNumberName":"U-component_of_WINDS"},"data":[0,0,0,0,0,0,0,0,0,0,0,0,0,0,0,0,0,0,0,0,0,0,0,0,0,0,0,0,0,0,0,0,0,0,0,0,0,0,0,0,0,0,0,0,0,0,0,0,0,0,0,0,0,0,0,0,0,0,0.3136,0.3136,0,0.315,0.315,0.315,0.3132,0.3132,0.3131,0.3131,0.3149,0.3151,0.3152,0,0,0,0,0,0,0,0,0,0,0,0,0,0.3098,0.3099,0.3136,0.3136,0.3136,0.315,0.315,0.315,0.3133,0.3132,0.3131,0.313,0.3149,0.315,0.3152,0,0,0,0,0,0,0,0,0,0,0,0,0,0.3114,0.3099,0.3136,0.3129,0.3128,0.315,0.315,0.315,0.3133,0.3132,0.3131,0.313,0.3149,0.315,0.3152,0.3182,0,0,0.3157,0.3158,0,0,0,0,0,0,0,0,0.3113,0.3115,0.313,0.3129,0.3129,0.3138,0.3143,0.3161,0.3133,0.3131,0.3131,0.3129,0.3147,0.3149,0.3154,0.3183,0.3184,0.3157,0.3158,0.3159,0.3159,0,0,0,0,0,0,0,0.3112,0.3114,0.3141,0.313,0.3129,0.3127,0.3128,0.3147,0.3145,0.3131,0.313,0.3132,0.3146,0.3152,0.3154,0.3184,0.3157,0.3159,0.316,0.316,0.3241,0.3242,0,0,0,0,0,0,0.3111,0.3114,0.3141,0.3142,0.3118,0.3128,0.3129,0.3136,0.3144,0.3144,0.3133,0.3131,0.315,0.3152,0.3154,0.3192,0.3159,0.316,0.3161,0.324,0.3241,0.3242,0,0,0,0,0,0,0.311,0.3113,0.314,0.3127,0.313,0.313,0.3138,0.3137,0.3142,0.3145,0.3145,0.3138,0.3149,0.3152,0.3175,0.3192,0.3161,0.3163,0.3238,0.324,0.3242,0.3266,0,0,0,0,0,0,0.3109,0.3113,0.3124,0.3128,0.3131,0.316,0.3139,0.3138,0.3145,0.3143,0.3151,0.3151,0.3148,0.3173,0.3177,0.3194,0.3164,0.3237,0.3239,0.3241,0.3264,0.3268,0.3272,0,0,0,0,0,0.3108,0.313,0.3124,0.3128,0.3144,0.3161,0.3163,0.3158,0.3146,0.3158,0.3159,0.3151,0.3189,0.3175,0.318,0.3198,0.3236,0.3238,0.3241,0.3262,0.3267,0.3272,0,0,0,0,0,0,0.313,0.3131,0.3124,0.3148,0.3154,0.3158,0.3172,0.3164,0.3175,0.3173,0.3168,0.317,0.3195,0.3198,0.3183,0.3228,0.3211,0.3214,0.3225,0.3231,0.3235,0.3235,0.3165,0,0,0,0,0,0.3137,0.3149,0.315,0.3172,0.3175,0.3173,0.318,0.3175,0.3182,0.3185,0.3189,0.3197,0.3211,0.3221,0.3234,0.3263,0.3266,0.3278,0.3282,0.3286,0.329,0.3308,0.3314,0.3251,0.3251,0.3251,0,0,0.3154,0.3155,0.3164,0.3176,0.318,0.3195,0.3175,0.3191,0.3202,0.3188,0.3211,0.3213,0.3222,0.325,0.3262,0.3253,0.3307,0.3289,0.3292,0.3294,0.3311,0.3317,0.3323,0.3252,0.3252,0.3252,0,0,0.3191,0.3192,0.3211,0.3216,0.3222,0.322,0.3225,0.3229,0.323,0.3252,0.3242,0.3256,0.328,0.3287,0.3294,0.3334,0.3328,0.3339,0.3362,0.338,0.3385,0.3389,0.3406,0.3412,0.3342,0.3342,0.3342,0,0.3211,0.3231,0.3222,0.3239,0.3246,0.3232,0.3252,0.3257,0.3268,0.3274,0.3263,0.3294,0.3299,0.3329,0.3338,0.3343,0.3351,0.3339,0.3384,0.3389,0.3393,0.3409,0.3415,0.3343,0.3343,0.3343,0.3343,0,0.3256,0.327,0.3285,0.3294,0.3302,0.3321,0.3317,0.3326,0.3321,0.3321,0.3345,0.335,0.3365,0.3371,0.3366,0.3401,0.3396,0.3385,0.3368,0.3401,0.3416,0.3422,0.3346,0.3345,0.3345,0.3344,0,0,0.331,0.3313,0.3319,0.3324,0.333,0.3341,0.336,0.3372,0.3382,0.3389,0.3407,0.3427,0.3417,0.3425,0.3421,0.3437,0.3471,0.3424,0.3425,0.3435,0.3512,0.3523,0.353,0.3466,0.3467,0.3468,0.3513,0,0.3349,0.3379,0.3372,0.3403,0.3418,0.3404,0.3421,0.3427,0.3427,0.3441,0.3441,0.3457,0.3442,0.3447,0.3461,0.3464,0.3487,0.346,0.3484,0.3485,0.3485,0.3537,0.3548,0.359,0.3518,0.3519,0.352,0,0.3399,0.3408,0.344,0.3444,0.345,0.3464,0.3476,0.3488,0.3495,0.3495,0.3503,0.3497,0.3517,0.3498,0.3528,0.3509,0.3519,0.3522,0.3523,0.3528,0.3507,0.3546,0.3603,0.3611,0.3529,0.3528,0.3527,0,0.3438,0.3458,0.348,0.3484,0.3489,0.35,0.3502,0.3508,0.3517,0.3528,0.3534,0.3547,0.3555,0.3567,0.3565,0.355,0.3596,0.3576,0.3599,0.3599,0.3611,0.3611,0.3674,0.3612,0.3612,0.3612,0.3612,0,0.3485,0.3506,0.3498,0.3512,0.3535,0.3527,0.3551,0.3553,0.3558,0.3574,0.3563,0.3578,0.3573,0.3589,0.3587,0.3613,0.3616,0.3619,0.3619,0.3621,0.3621,0.3629,0.3628,0.3614,0.3613,0.3613,0.3613,0,0.3534,0.3529,0.3553,0.3554,0.3555,0.3573,0.3576,0.359,0.3589,0.3609,0.3613,0.3612,0.363,0.3628,0.3648,0.3648,0.3681,0.3676,0.3679,0.3679,0.3703,0.3702,0.3775,0.3786,0.3715,0.3715,0.3716,0,0.3565,0.3581,0.3584,0.3593,0.3596,0.361,0.3619,0.3612,0.3621,0.3631,0.3645,0.3661,0.3674,0.3703,0.3706,0.3722,0.3719,0.3744,0.3722,0.3725,0.3723,0.3723,0.3726,0.3749,0.375,0.375,0.3751,0,0.3622,0.3619,0.3631,0.3642,0.3652,0.366,0.3668,0.3677,0.367,0.3682,0.3699,0.3709,0.3729,0.3747,0.3762,0.3767,0.376,0.3757,0.3764,0.3769,0.3771,0.3773,0.3694,0.3757,0.3756,0.3756,0.3755,0.3755,0.3666,0.368,0.3684,0.3698,0.3703,0.371,0.3724,0.3724,0.3738,0.3753,0.3748,0.3768,0.3776,0.3795,0.3802,0.3819,0.3811,0.3819,0.3822,0.3826,0.383,0.3765,0.3821,0.3821,0.3821,0.3821,0.3821,0,0.3725,0.3727,0.3739,0.375,0.3762,0.375,0.3758,0.3769,0.3787,0.3794,0.3806,0.3827,0.3844,0.3847,0.3864,0.3878,0.3875,0.3883,0.3883,0.3885,0.3835,0.3829,0.3885,0.3885,0.3885,0.3885,0.3885,0.3885,0.3758,0.3781,0.3778,0.3805,0.3807,0.3825,0.3831,0.3839,0.3845,0.3868,0.3882,0.3883,0.3889,0.3906,0.3922,0.3923,0.3931,0.3941,0.3941,0.3895,0.3888,0.3882,0.3877,0.3942,0.3942,0.399,0.3991,0.3991]},{"header":{"parameterUnit":"m.s-1","parameterCategory":1,"la1":30.2991,"la2":30.254,"lo1":-89.0895,"lo2":-89.0444,"dy":0.0017,"dx":0.0017,"nx":28,"ny":28,"refTime":"2024-08-14T21:00:00:Z","depth":0,"parameterNumber":3,"parameterNumberName":"V-component_of_WINDS"},"data":[0,0,0,0,0,0,0,0,0,0,0,0,0,0,0,0,0,0,0,0,0,0,0,0,0,0,0,0,0,0,0,0,0,0,0,0,0,0,0,0,0,0,0,0,0,0,0,0,0,0,0,0,0,0,0,0,0,0,0.0204,0.0205,0,0.0315,0.0317,0.0318,0.0368,0.0368,0.0368,0.0368,0.048,0.0483,0.0486,0,0,0,0,0,0,0,0,0,0,0,0,0,0.0031,0.0034,0.0204,0.0205,0.0206,0.0315,0.0317,0.0318,0.0368,0.0368,0.0368,0.0368,0.0479,0.0483,0.0487,0,0,0,0,0,0,0,0,0,0,0,0,0,0.0121,0.0035,0.0203,0.0245,0.0249,0.0315,0.0317,0.0319,0.0368,0.0368,0.0368,0.0368,0.0478,0.0483,0.0487,0.052,0,0,0.0502,0.0504,0,0,0,0,0,0,0,0,0.0116,0.0127,0.0237,0.0242,0.0247,0.0328,0.0297,0.0386,0.0368,0.0323,0.0368,0.0368,0.043,0.0438,0.046,0.0525,0.053,0.0502,0.0505,0.0507,0.0508,0,0,0,0,0,0,0,0.011,0.0123,0.0248,0.0239,0.0245,0.0257,0.0269,0.0314,0.0376,0.0327,0.0331,0.0343,0.0432,0.0455,0.0463,0.0532,0.0502,0.0506,0.0509,0.0511,0.0629,0.0629,0,0,0,0,0,0,0.0097,0.0117,0.0244,0.0251,0.018,0.026,0.0274,0.0302,0.0376,0.0387,0.0344,0.0345,0.0447,0.0457,0.0467,0.051,0.0507,0.0511,0.0514,0.0628,0.0629,0.0629,0,0,0,0,0,0,0.0093,0.0108,0.024,0.0185,0.0203,0.0263,0.0294,0.0304,0.0327,0.0388,0.0399,0.0355,0.0447,0.046,0.0506,0.0514,0.0513,0.0517,0.0628,0.0629,0.0629,0.0595,0,0,0,0,0,0,0.0088,0.0106,0.012,0.0185,0.0206,0.0278,0.0295,0.0307,0.0335,0.0339,0.0402,0.0413,0.0448,0.0499,0.0511,0.0521,0.0521,0.0628,0.0628,0.0629,0.0596,0.0595,0.0594,0,0,0,0,0,0.0082,0.0105,0.012,0.0135,0.0224,0.0278,0.029,0.0331,0.0336,0.0349,0.0388,0.0411,0.0511,0.0503,0.0517,0.0528,0.0627,0.0628,0.0629,0.0597,0.0595,0.0594,0,0,0,0,0,0,0.0039,0.0115,0.0132,0.0178,0.0221,0.0287,0.0306,0.0328,0.0371,0.0372,0.042,0.0434,0.0476,0.0507,0.0497,0.0563,0.0571,0.0575,0.0542,0.0541,0.054,0.0532,0.0525,0,0,0,0,0,0.0035,0.0073,0.0137,0.0172,0.0193,0.0245,0.027,0.0298,0.0345,0.0363,0.0406,0.045,0.0491,0.0518,0.0559,0.06,0.0615,0.0615,0.0614,0.0612,0.0615,0.0639,0.0639,0.0632,0.0632,0.0632,0,0,0.0027,0.0073,0.0094,0.0164,0.0201,0.0239,0.026,0.03,0.0328,0.0369,0.0416,0.0448,0.05,0.0544,0.0565,0.0571,0.062,0.0613,0.0612,0.0615,0.0639,0.064,0.0641,0.0632,0.0632,0.0632,0,0,0.0032,0.0071,0.0104,0.014,0.0196,0.0231,0.0238,0.03,0.0324,0.0371,0.0402,0.0436,0.0507,0.0543,0.057,0.0588,0.061,0.06,0.0594,0.0616,0.0617,0.0617,0.0624,0.0625,0.0602,0.0602,0.0602,0,0.0015,0.0074,0.0117,0.0155,0.0185,0.0224,0.0257,0.029,0.0356,0.0375,0.0381,0.047,0.0508,0.056,0.0564,0.0585,0.0595,0.0593,0.0613,0.0614,0.0616,0.0622,0.0624,0.0601,0.0601,0.0601,0.0601,0,0.005,0.0091,0.0111,0.0174,0.0206,0.0241,0.0289,0.0316,0.034,0.0374,0.0421,0.0468,0.0519,0.0534,0.0558,0.0589,0.0591,0.0604,0.0613,0.0614,0.0621,0.0624,0.0598,0.0599,0.0599,0.06,0,0,0.0032,0.0119,0.0126,0.0155,0.0219,0.0251,0.0287,0.0338,0.036,0.0404,0.0435,0.0494,0.0506,0.0537,0.0565,0.0585,0.0596,0.0596,0.0598,0.0594,0.0633,0.0623,0.0625,0.061,0.0611,0.0611,0.0629,0,0.0046,0.0115,0.0154,0.0206,0.0244,0.028,0.0312,0.0354,0.0387,0.0423,0.0458,0.0499,0.0512,0.0531,0.0552,0.059,0.0604,0.0589,0.064,0.0641,0.0626,0.0629,0.0619,0.0633,0.0632,0.0632,0.0633,0,0.0072,0.0116,0.0171,0.0231,0.0248,0.0276,0.0326,0.036,0.0408,0.043,0.0464,0.0492,0.0532,0.0537,0.0591,0.058,0.0603,0.0624,0.0626,0.0633,0.0637,0.0636,0.0639,0.0641,0.0637,0.0637,0.0637,0,0.0054,0.0126,0.0169,0.0192,0.0263,0.0281,0.0311,0.036,0.0387,0.043,0.0449,0.0495,0.0521,0.0556,0.0596,0.0596,0.0646,0.0654,0.0665,0.0664,0.0675,0.0673,0.0681,0.0688,0.0688,0.0688,0.0688,0,0.0066,0.0098,0.0161,0.0188,0.0225,0.0269,0.0305,0.0337,0.038,0.0412,0.0447,0.0476,0.0527,0.0563,0.0594,0.0634,0.0645,0.0664,0.0672,0.0661,0.0659,0.0677,0.0677,0.0689,0.0689,0.0689,0.0688,0,0.0052,0.0095,0.0144,0.0207,0.0223,0.0247,0.0301,0.0327,0.0361,0.0401,0.0414,0.0466,0.051,0.0553,0.0612,0.0633,0.0672,0.0683,0.0656,0.0661,0.0669,0.0668,0.0689,0.0694,0.0697,0.0697,0.0697,0,0.0056,0.0082,0.0147,0.0172,0.0201,0.0241,0.0269,0.0314,0.0342,0.0398,0.0418,0.0464,0.0504,0.0572,0.0615,0.066,0.0672,0.0676,0.0679,0.0667,0.0672,0.067,0.0673,0.0675,0.0675,0.0675,0.0674,0,0.006,0.0081,0.0121,0.0169,0.0202,0.0242,0.0283,0.0301,0.0353,0.0383,0.0428,0.0459,0.0519,0.0564,0.0614,0.0644,0.0668,0.0673,0.0678,0.0668,0.0651,0.066,0.0653,0.0673,0.0673,0.0673,0.0673,0.0673,0.0056,0.0081,0.0131,0.0174,0.021,0.0247,0.0275,0.0312,0.0351,0.0404,0.0427,0.0473,0.0519,0.0589,0.0618,0.0654,0.066,0.0667,0.0669,0.067,0.0668,0.0645,0.0663,0.0664,0.0664,0.0664,0.0664,0,0.0062,0.0096,0.0136,0.0192,0.0226,0.0245,0.0291,0.0318,0.0359,0.04,0.0439,0.049,0.0535,0.0581,0.0627,0.0647,0.0659,0.0658,0.0657,0.0664,0.066,0.0651,0.0647,0.0647,0.0647,0.0647,0.0647,0.0647,0.007,0.0112,0.0138,0.0198,0.0232,0.0277,0.0302,0.0336,0.037,0.0426,0.0463,0.0493,0.0537,0.0587,0.0628,0.064,0.0656,0.0651,0.0667,0.0663,0.0664,0.0665,0.0657,0.0654,0.0654,0.0668,0.0668,0.0668]}]]